RPB7403 SVMI-SKRG

Flight info

Callsign RPB7403
Flight time 1h 29m
Altitude 36000
Route MARES1 MARES DCT PBL UW40 BRM UW8 LFA UW34 CUC UW26 MRN MRN3D
Aircraft B738/M-SDE2E3FGHIRWXY/LB1

Departure

Time 2026-05-08 20:42
Airport Maiquetía Simón Bolívar International Airport (SVMI)

Arrival

Time 2026-05-08 22:12
Airport Jose Maria Córdova International Airport (SKRG)
Time Latitude Longitude Altitude Speed Heading
2026-05-08 20:29 10.59811 -67.00914 235 ft 0 kts 178°
2026-05-08 20:37 10.59814 -67.00914 235 ft 2 kts 179°
2026-05-08 20:37 10.59831 -67.00914 239 ft 3 kts 181°
2026-05-08 20:37 10.59852 -67.00913 237 ft 3 kts 185°
2026-05-08 20:38 10.59872 -67.00911 237 ft 3 kts 192°
2026-05-08 20:38 10.59891 -67.00905 238 ft 3 kts 208°
2026-05-08 20:38 10.59905 -67.00895 240 ft 3 kts 248°
2026-05-08 20:38 10.59908 -67.00887 238 ft 0 kts 268°
2026-05-08 20:40 10.59933 -67.00924 238 ft 13 kts 313°
2026-05-08 20:40 10.59981 -67.01005 236 ft 13 kts 279°
2026-05-08 20:40 10.59979 -67.01097 238 ft 13 kts 268°
2026-05-08 20:40 10.59977 -67.01187 239 ft 13 kts 271°
2026-05-08 20:41 10.60023 -67.01241 240 ft 10 kts 354°
2026-05-08 20:41 10.60091 -67.01245 240 ft 10 kts 357°
2026-05-08 20:41 10.60160 -67.01247 237 ft 11 kts 359°
2026-05-08 20:41 10.60214 -67.01212 237 ft 12 kts 82°
2026-05-08 20:42 10.60225 -67.00918 231 ft 77 kts 88°
2026-05-08 20:42 10.60249 -67.00144 224 ft 140 kts 88°
2026-05-08 20:42 10.60285 -66.98997 380 ft 174 kts 88°
2026-05-08 20:42 10.60373 -66.97759 1016 ft 181 kts 74°
2026-05-08 20:43 10.61133 -66.96785 1749 ft 181 kts 25°
2026-05-08 20:43 10.62387 -66.96398 2301 ft 203 kts
2026-05-08 20:43 10.63871 -66.96563 2535 ft 230 kts 335°
2026-05-08 20:43 10.65136 -66.97661 2784 ft 257 kts 298°
2026-05-08 20:44 10.65646 -66.99406 3421 ft 265 kts 274°
2026-05-08 20:44 10.65528 -67.01298 4080 ft 272 kts 261°
2026-05-08 20:44 10.65220 -67.03231 4784 ft 280 kts 260°
2026-05-08 20:44 10.64882 -67.05171 5665 ft 279 kts 260°
2026-05-08 20:45 10.64541 -67.07137 6371 ft 286 kts 260°
2026-05-08 20:45 10.64314 -67.08459 6931 ft 285 kts 261°
2026-05-08 20:45 10.63861 -67.11164 7833 ft 294 kts 261°
2026-05-08 20:45 10.63521 -67.13231 8572 ft 298 kts 261°
2026-05-08 20:46 10.63181 -67.15321 9304 ft 302 kts 261°
2026-05-08 20:46 10.62839 -67.17448 9990 ft 308 kts 261°
2026-05-08 20:46 10.62549 -67.19257 10380 ft 319 kts 262°
2026-05-08 20:46 10.62185 -67.21544 10533 ft 343 kts 261°
2026-05-08 20:47 10.61795 -67.24005 10692 ft 364 kts 261°
2026-05-08 20:47 10.61381 -67.26608 10918 ft 380 kts 262°
2026-05-08 20:47 10.60956 -67.29285 11395 ft 386 kts 262°
2026-05-08 20:47 10.60526 -67.31993 12004 ft 389 kts 262°
2026-05-08 20:48 10.60092 -67.34717 12630 ft 392 kts 262°
2026-05-08 20:48 10.59655 -67.37466 13239 ft 395 kts 262°
2026-05-08 20:48 10.59215 -67.40239 13862 ft 399 kts 262°
2026-05-08 20:48 10.58769 -67.43039 14424 ft 402 kts 262°
2026-05-08 20:49 10.58322 -67.45852 15050 ft 403 kts 262°
2026-05-08 20:49 10.57879 -67.48632 15675 ft 405 kts 262°
2026-05-08 20:49 10.57427 -67.51466 16286 ft 407 kts 262°
2026-05-08 20:49 10.56973 -67.54316 16858 ft 409 kts 262°
2026-05-08 20:50 10.56515 -67.57186 17416 ft 413 kts 262°
2026-05-08 20:50 10.56054 -67.60078 17977 ft 415 kts 261°
2026-05-08 20:50 10.55589 -67.62987 18504 ft 418 kts 261°
2026-05-08 20:50 10.55122 -67.65912 18982 ft 420 kts 262°
2026-05-08 20:51 10.54653 -67.68848 19452 ft 422 kts 262°
2026-05-08 20:51 10.54186 -67.71767 19909 ft 424 kts 262°
2026-05-08 20:51 10.53711 -67.74734 20363 ft 427 kts 262°
2026-05-08 20:51 10.53233 -67.77720 20827 ft 429 kts 262°
2026-05-08 20:52 10.52753 -67.80715 21261 ft 431 kts 262°
2026-05-08 20:52 10.52270 -67.83727 21685 ft 433 kts 262°
2026-05-08 20:52 10.51782 -67.86771 22119 ft 435 kts 262°
2026-05-08 20:52 10.51292 -67.89818 22539 ft 437 kts 262°
2026-05-08 20:53 10.50801 -67.92877 22904 ft 440 kts 262°
2026-05-08 20:53 10.50306 -67.95956 23268 ft 443 kts 262°
2026-05-08 20:53 10.49809 -67.99050 23659 ft 445 kts 262°
2026-05-08 20:53 10.49319 -68.02094 24020 ft 444 kts 262°
2026-05-08 20:54 10.48826 -68.05156 24395 ft 444 kts 262°
2026-05-08 20:54 10.48273 -68.08245 24711 ft 446 kts 258°
2026-05-08 20:54 10.47360 -68.11280 25008 ft 449 kts 252°
2026-05-08 20:54 10.46316 -68.14276 25301 ft 451 kts 251°
2026-05-08 20:55 10.45240 -68.17278 25584 ft 453 kts 251°
2026-05-08 20:55 10.44158 -68.20296 25847 ft 455 kts 251°
2026-05-08 20:55 10.43078 -68.23339 26022 ft 459 kts 252°
2026-05-08 20:55 10.42014 -68.26374 26279 ft 461 kts 252°
2026-05-08 20:56 10.40946 -68.29447 26579 ft 462 kts 252°
2026-05-08 20:56 10.39877 -68.32539 26893 ft 462 kts 252°
2026-05-08 20:56 10.38811 -68.35631 27169 ft 464 kts 252°
2026-05-08 20:56 10.37745 -68.38725 27432 ft 465 kts 252°
2026-05-08 20:57 10.36686 -68.41800 27680 ft 467 kts 252°
2026-05-08 20:57 10.35611 -68.44919 27917 ft 468 kts 252°
2026-05-08 20:57 10.34533 -68.48044 28155 ft 470 kts 252°
2026-05-08 20:57 10.33448 -68.51186 28406 ft 471 kts 252°
2026-05-08 20:58 10.32360 -68.54336 28618 ft 473 kts 252°
2026-05-08 20:58 10.31266 -68.57503 28771 ft 476 kts 252°
2026-05-08 20:58 10.30178 -68.60649 28982 ft 478 kts 252°
2026-05-08 20:58 10.29078 -68.63831 29247 ft 478 kts 252°
2026-05-08 20:59 10.27978 -68.67010 29612 ft 476 kts 252°
2026-05-08 20:59 10.26881 -68.70178 30020 ft 473 kts 252°
2026-05-08 20:59 10.25791 -68.73325 30340 ft 472 kts 252°
2026-05-08 20:59 10.24701 -68.76473 30548 ft 473 kts 252°
2026-05-08 21:00 10.23607 -68.79632 30725 ft 475 kts 252°
2026-05-08 21:00 10.22510 -68.82800 30961 ft 475 kts 252°
2026-05-08 21:00 10.21410 -68.85973 31229 ft 475 kts 252°
2026-05-08 21:00 10.20327 -68.89097 31405 ft 477 kts 252°
2026-05-08 21:01 10.19221 -68.92285 31569 ft 479 kts 252°
2026-05-08 21:01 10.18115 -68.95474 31843 ft 479 kts 252°
2026-05-08 21:01 10.17008 -68.98661 32151 ft 478 kts 252°
2026-05-08 21:01 10.15923 -69.01785 32412 ft 478 kts 252°
2026-05-08 21:02 10.14815 -69.04975 32653 ft 479 kts 252°
2026-05-08 21:02 10.13707 -69.08164 32934 ft 479 kts 252°
2026-05-08 21:02 10.12598 -69.11356 33238 ft 479 kts 253°
2026-05-08 21:02 10.11486 -69.14552 33523 ft 479 kts 253°
2026-05-08 21:03 10.10377 -69.17742 33788 ft 480 kts 253°
2026-05-08 21:03 10.09266 -69.20937 34050 ft 480 kts 252°
2026-05-08 21:03 10.08153 -69.24135 34346 ft 479 kts 252°
2026-05-08 21:03 10.07046 -69.27313 34738 ft 475 kts 252°
2026-05-08 21:04 10.05963 -69.30423 35155 ft 470 kts 252°
2026-05-08 21:04 10.04875 -69.33543 35544 ft 467 kts 252°
2026-05-08 21:04 10.03694 -69.36618 35864 ft 466 kts 247°
2026-05-08 21:04 10.02267 -69.39572 36041 ft 468 kts 245°
2026-05-08 21:05 10.01265 -69.41523 36014 ft 471 kts 244°
2026-05-08 21:05 9.98163 -69.47398 36018 ft 471 kts 244°
2026-05-08 21:06 9.95115 -69.53230 36015 ft 464 kts 244°
2026-05-08 21:06 9.92148 -69.59010 36027 ft 464 kts 245°
2026-05-08 21:07 9.89181 -69.64826 36032 ft 463 kts 245°
2026-05-08 21:07 9.86220 -69.70631 36031 ft 463 kts 245°
2026-05-08 21:08 9.83271 -69.76405 36034 ft 464 kts 245°
2026-05-08 21:08 9.80300 -69.82215 36024 ft 465 kts 245°
2026-05-08 21:09 9.77322 -69.88038 36045 ft 465 kts 244°
2026-05-08 21:09 9.74340 -69.93863 36043 ft 466 kts 244°
2026-05-08 21:10 9.71352 -69.99700 36055 ft 466 kts 244°
2026-05-08 21:10 9.68392 -70.05477 36049 ft 467 kts 244°
2026-05-08 21:11 9.65390 -70.11334 36059 ft 468 kts 244°
2026-05-08 21:11 9.62404 -70.17156 36051 ft 469 kts 244°
2026-05-08 21:12 9.59394 -70.23022 36033 ft 469 kts 244°
2026-05-08 21:12 9.56377 -70.28898 36036 ft 469 kts 244°
2026-05-08 21:13 9.53362 -70.34769 36018 ft 469 kts 244°
2026-05-08 21:13 9.50350 -70.40632 36017 ft 468 kts 244°
2026-05-08 21:14 9.47342 -70.46484 36015 ft 468 kts 244°
2026-05-08 21:14 9.44347 -70.52308 35991 ft 467 kts 244°
2026-05-08 21:15 9.41182 -70.58049 36020 ft 468 kts 238°
2026-05-08 21:15 9.37419 -70.63437 35984 ft 468 kts 236°
2026-05-08 21:16 9.33658 -70.68764 35991 ft 467 kts 236°
2026-05-08 21:16 9.29933 -70.74170 35997 ft 467 kts 237°
2026-05-08 21:17 9.26227 -70.79561 36020 ft 466 kts 237°
2026-05-08 21:17 9.22513 -70.84945 36003 ft 466 kts 237°
2026-05-08 21:18 9.18824 -70.90290 35976 ft 465 kts 237°
2026-05-08 21:18 9.15121 -70.95656 36034 ft 465 kts 237°
2026-05-08 21:19 9.11446 -71.00980 36035 ft 464 kts 237°
2026-05-08 21:19 9.07766 -71.06309 35999 ft 464 kts 237°
2026-05-08 21:20 9.04064 -71.11667 35996 ft 464 kts 237°
2026-05-08 21:20 9.00356 -71.17033 35994 ft 465 kts 237°
2026-05-08 21:21 8.96653 -71.22389 35999 ft 465 kts 237°
2026-05-08 21:21 8.92948 -71.27746 35998 ft 465 kts 237°
2026-05-08 21:22 8.89241 -71.33104 35996 ft 464 kts 237°
2026-05-08 21:22 8.85552 -71.38434 35992 ft 464 kts 237°
2026-05-08 21:23 8.81854 -71.43782 35996 ft 464 kts 237°
2026-05-08 21:23 8.78156 -71.49135 35997 ft 463 kts 237°
2026-05-08 21:24 8.74486 -71.54445 36030 ft 464 kts 237°
2026-05-08 21:24 8.70792 -71.59788 35979 ft 464 kts 237°
2026-05-08 21:25 8.67096 -71.65132 35979 ft 463 kts 237°
2026-05-08 21:25 8.63397 -71.70477 35994 ft 463 kts 237°
2026-05-08 21:26 8.59703 -71.75813 35993 ft 463 kts 237°
2026-05-08 21:26 8.56011 -71.81144 35991 ft 463 kts 237°
2026-05-08 21:27 8.52316 -71.86477 35970 ft 463 kts 237°
2026-05-08 21:27 8.48643 -71.91778 36008 ft 463 kts 236°
2026-05-08 21:28 8.44934 -71.97126 36012 ft 464 kts 236°
2026-05-08 21:28 8.41270 -72.02410 35987 ft 464 kts 236°
2026-05-08 21:29 8.37559 -72.07758 35986 ft 464 kts 236°
2026-05-08 21:29 8.33852 -72.13100 35995 ft 464 kts 236°
2026-05-08 21:30 8.30142 -72.18443 35995 ft 465 kts 237°
2026-05-08 21:30 8.26455 -72.23748 35990 ft 464 kts 239°
2026-05-08 21:31 8.22692 -72.29047 35983 ft 465 kts 233°
2026-05-08 21:31 8.18675 -72.34167 35992 ft 465 kts 232°
2026-05-08 21:32 8.14604 -72.39252 35993 ft 465 kts 232°
2026-05-08 21:32 8.10545 -72.44365 35986 ft 466 kts 232°
2026-05-08 21:33 8.06532 -72.49456 35997 ft 467 kts 233°
2026-05-08 21:33 8.02486 -72.54600 35989 ft 467 kts 233°
2026-05-08 21:34 7.98447 -72.59733 35997 ft 467 kts 232°
2026-05-08 21:34 7.94401 -72.64873 36006 ft 467 kts 233°
2026-05-08 21:35 7.90362 -72.70000 36003 ft 466 kts 233°
2026-05-08 21:35 7.86337 -72.75105 36015 ft 464 kts 233°
2026-05-08 21:36 7.82355 -72.80156 36055 ft 462 kts 233°
2026-05-08 21:36 7.78354 -72.85228 36069 ft 461 kts 233°
2026-05-08 21:37 7.74365 -72.90285 36060 ft 460 kts 233°
2026-05-08 21:37 7.70374 -72.95342 36047 ft 460 kts 232°
2026-05-08 21:38 7.66433 -73.00335 36060 ft 459 kts 231°
2026-05-08 21:38 7.62466 -73.05355 36050 ft 457 kts 232°
2026-05-08 21:39 7.58505 -73.10370 35998 ft 456 kts 232°
2026-05-08 21:39 7.54574 -73.15346 36002 ft 457 kts 232°
2026-05-08 21:40 7.50609 -73.20363 35992 ft 457 kts 232°
2026-05-08 21:40 7.46640 -73.25383 35954 ft 457 kts 232°
2026-05-08 21:41 7.40676 -73.32923 35969 ft 459 kts 232°
2026-05-08 21:41 7.36694 -73.37954 35935 ft 459 kts 232°
2026-05-08 21:42 7.32744 -73.42943 35935 ft 458 kts 232°
2026-05-08 21:42 7.28768 -73.47964 35926 ft 457 kts 232°
2026-05-08 21:43 7.24801 -73.52973 35898 ft 457 kts 232°
2026-05-08 21:43 7.20831 -73.57983 35909 ft 457 kts 232°
2026-05-08 21:44 7.16880 -73.62969 35907 ft 458 kts 232°
2026-05-08 21:44 7.12906 -73.67981 35902 ft 458 kts 232°
2026-05-08 21:45 7.08923 -73.73005 35898 ft 458 kts 232°
2026-05-08 21:45 7.04939 -73.78028 35899 ft 459 kts 232°
2026-05-08 21:46 7.01253 -73.83248 35917 ft 458 kts 240°
2026-05-08 21:46 6.98158 -73.88859 35906 ft 458 kts 242°
2026-05-08 21:47 6.95110 -73.94453 35911 ft 458 kts 241°
2026-05-08 21:47 6.92014 -74.00038 35908 ft 458 kts 241°
2026-05-08 21:48 6.88906 -74.05588 35907 ft 458 kts 240°
2026-05-08 21:48 6.85769 -74.11181 35908 ft 458 kts 240°
2026-05-08 21:49 6.84196 -74.13985 35547 ft 463 kts 240°
2026-05-08 21:49 6.82607 -74.16817 34973 ft 463 kts 240°
2026-05-08 21:49 6.81025 -74.19638 34323 ft 463 kts 240°
2026-05-08 21:49 6.79437 -74.22469 33591 ft 465 kts 240°
2026-05-08 21:50 6.77846 -74.25304 32836 ft 466 kts 240°
2026-05-08 21:50 6.76270 -74.28114 32093 ft 467 kts 240°
2026-05-08 21:50 6.74669 -74.30966 31340 ft 469 kts 241°
2026-05-08 21:50 6.73056 -74.33840 30672 ft 469 kts 241°
2026-05-08 21:51 6.71456 -74.36691 30104 ft 467 kts 241°
2026-05-08 21:51 6.69863 -74.39528 29480 ft 465 kts 241°
2026-05-08 21:51 6.68275 -74.42358 28889 ft 461 kts 241°
2026-05-08 21:51 6.66702 -74.45158 28322 ft 458 kts 241°
2026-05-08 21:52 6.65157 -74.47910 27771 ft 455 kts 241°
2026-05-08 21:52 6.63605 -74.50673 27245 ft 452 kts 241°
2026-05-08 21:52 6.62061 -74.53421 26691 ft 449 kts 241°
2026-05-08 21:52 6.60525 -74.56154 26150 ft 447 kts 240°
2026-05-08 21:53 6.59509 -74.57961 25793 ft 445 kts 240°
2026-05-08 21:53 6.57492 -74.61548 25066 ft 442 kts 240°
2026-05-08 21:53 6.55979 -74.64239 24540 ft 440 kts 240°
2026-05-08 21:53 6.54472 -74.66919 23998 ft 439 kts 240°
2026-05-08 21:54 6.53458 -74.68723 23625 ft 438 kts 240°
2026-05-08 21:54 6.51963 -74.71381 23005 ft 436 kts 240°
2026-05-08 21:54 6.50496 -74.73991 22454 ft 433 kts 240°
2026-05-08 21:54 6.49018 -74.76618 21902 ft 429 kts 240°
2026-05-08 21:55 6.47554 -74.79221 21395 ft 426 kts 240°
2026-05-08 21:55 6.46098 -74.81810 20867 ft 423 kts 240°
2026-05-08 21:55 6.44656 -74.84373 20346 ft 420 kts 240°
2026-05-08 21:56 6.41795 -74.89456 19284 ft 415 kts 240°
2026-05-08 21:56 6.40375 -74.91979 18754 ft 413 kts 240°
2026-05-08 21:56 6.38964 -74.94486 18224 ft 411 kts 240°
2026-05-08 21:56 6.37559 -74.96981 17577 ft 406 kts 240°
2026-05-08 21:57 6.36183 -74.99425 16914 ft 397 kts 240°
2026-05-08 21:57 6.34859 -75.01775 16402 ft 392 kts 240°
2026-05-08 21:57 6.33520 -75.04152 15909 ft 390 kts 240°
2026-05-08 21:57 6.32183 -75.06527 15398 ft 390 kts 240°
2026-05-08 21:58 6.30867 -75.08863 14917 ft 389 kts 240°
2026-05-08 21:58 6.29536 -75.11224 14439 ft 388 kts 240°
2026-05-08 21:58 6.28212 -75.13574 14183 ft 381 kts 240°
2026-05-08 21:58 6.26919 -75.15870 13996 ft 372 kts 240°
2026-05-08 21:59 6.25659 -75.18106 13857 ft 361 kts 240°
2026-05-08 21:59 6.24448 -75.20255 13704 ft 345 kts 240°
2026-05-08 21:59 6.23288 -75.22313 13580 ft 330 kts 240°
2026-05-08 21:59 6.22177 -75.24283 13477 ft 317 kts 240°
2026-05-08 22:00 6.21114 -75.26169 13368 ft 304 kts 240°
2026-05-08 22:00 6.20089 -75.27986 13260 ft 294 kts 240°
2026-05-08 22:00 6.19086 -75.29762 13177 ft 290 kts 239°
2026-05-08 22:00 6.17867 -75.31308 13068 ft 284 kts 215°
2026-05-08 22:01 6.16134 -75.32121 13080 ft 271 kts 191°
2026-05-08 22:01 6.14282 -75.32259 13074 ft 264 kts 176°
2026-05-08 22:01 6.12439 -75.32152 13067 ft 264 kts 174°
2026-05-08 22:01 6.10649 -75.32023 13073 ft 251 kts 174°
2026-05-08 22:02 6.08953 -75.31901 13023 ft 237 kts 174°
2026-05-08 22:02 6.07336 -75.31789 13020 ft 231 kts 174°
2026-05-08 22:02 6.05729 -75.31681 13014 ft 232 kts 174°
2026-05-08 22:02 6.04114 -75.31574 13010 ft 233 kts 175°
2026-05-08 22:03 6.02493 -75.31468 12999 ft 234 kts 175°
2026-05-08 22:03 6.00886 -75.31366 12982 ft 235 kts 175°
2026-05-08 22:03 5.99253 -75.31264 12960 ft 235 kts 175°
2026-05-08 22:03 5.97616 -75.31162 12939 ft 236 kts 175°
2026-05-08 22:04 5.95981 -75.31060 12929 ft 235 kts 175°
2026-05-08 22:04 5.94343 -75.30958 12911 ft 235 kts 175°
2026-05-08 22:04 5.92713 -75.30857 12895 ft 234 kts 175°
2026-05-08 22:04 5.91082 -75.30757 12894 ft 239 kts 175°
2026-05-08 22:05 5.89398 -75.30905 12845 ft 249 kts 202°
2026-05-08 22:05 5.88093 -75.31937 12810 ft 244 kts 236°
2026-05-08 22:05 5.87576 -75.33538 12658 ft 242 kts 265°
2026-05-08 22:05 5.87530 -75.35222 12489 ft 240 kts 270°
2026-05-08 22:06 5.87542 -75.36893 12321 ft 236 kts 270°
2026-05-08 22:06 5.87549 -75.38506 12142 ft 226 kts 269°
2026-05-08 22:06 5.87655 -75.40049 11967 ft 217 kts 288°
2026-05-08 22:06 5.88429 -75.41281 11816 ft 213 kts 321°
2026-05-08 22:07 5.89785 -75.41812 11595 ft 211 kts 354°
2026-05-08 22:07 5.91254 -75.42003 11308 ft 213 kts 355°
2026-05-08 22:07 5.92717 -75.42121 11062 ft 208 kts 359°
2026-05-08 22:07 5.94155 -75.42162 10813 ft 204 kts
2026-05-08 22:08 5.95552 -75.42174 10615 ft 199 kts
2026-05-08 22:08 5.96945 -75.42186 10387 ft 200 kts
2026-05-08 22:08 5.98329 -75.42198 10155 ft 201 kts
2026-05-08 22:08 5.99739 -75.42203 9875 ft 203 kts
2026-05-08 22:09 6.01149 -75.42212 9621 ft 202 kts
2026-05-08 22:09 6.02541 -75.42221 9382 ft 199 kts
2026-05-08 22:09 6.03919 -75.42230 9130 ft 195 kts
2026-05-08 22:09 6.05256 -75.42239 8898 ft 188 kts
2026-05-08 22:10 6.06516 -75.42248 8715 ft 174 kts
2026-05-08 22:10 6.07731 -75.42255 8455 ft 173 kts
2026-05-08 22:10 6.08918 -75.42263 8230 ft 168 kts
2026-05-08 22:10 6.10077 -75.42271 8024 ft 169 kts
2026-05-08 22:11 6.11250 -75.42278 7783 ft 169 kts
2026-05-08 22:11 6.12417 -75.42286 7534 ft 167 kts
2026-05-08 22:11 6.13577 -75.42292 7299 ft 166 kts
2026-05-08 22:11 6.14732 -75.42298 7044 ft 165 kts
2026-05-08 22:12 6.15836 -75.42306 6978 ft 146 kts 359°
2026-05-08 22:12 6.16688 -75.42312 6991 ft 78 kts 359°
2026-05-08 22:12 6.16991 -75.42350 7005 ft 35 kts 336°
2026-05-08 22:12 6.17117 -75.42418 7012 ft 4 kts 330°
2026-05-08 22:13 6.17138 -75.42431 7013 ft 4 kts 329°
2026-05-08 22:13 6.17159 -75.42447 7014 ft 6 kts 311°
2026-05-08 22:13 6.17184 -75.42528 7012 ft 19 kts 271°
2026-05-08 22:13 6.17224 -75.42614 7017 ft 12 kts 343°
2026-05-08 22:14 6.17297 -75.42649 7017 ft 12 kts 295°
2026-05-08 22:14 6.17270 -75.42708 7017 ft 9 kts 231°
2026-05-08 22:14 6.17252 -75.42728 7017 ft 0 kts 229°